Location: *
(28.3744°N, 81.5492°W)
Time: 04:16:17
(UTC+00:00)

Resurs 01 Rocket - Pass Details

Date: 15 June 2025
Orbit: 628 x 636 km, 97.7° (Epoch: 11 July)

Event Time Altitude Azimuth Distance (km) Brightness Sun altitude
Rises 01:04:01 0° 171° (S) 2,900 4.6 -8.3°
Reaches altitude 10° 01:06:12 10° 173° (S) 1,996 3.8 -8.7°
Maximum altitude 01:10:33 75° 259° (WSW) 652 1.8 -9.5°
Drops below altitude 10° 01:14:55 10° 345° (NNW) 2,008 5.0 -10.3°
Sets 01:17:07 0° 347° (NNW) 2,919 5.8 -10.7°
